Location: Franzen
(48.6167°N, 15.3833°E)
Time: 07:56:28
(UTC+00:00)

ARIANE 5 R/B - Pass Details

Date: 02 August 2021
Orbit: 620 x 656 km, 98.1° (Epoch: 11 September)

Event Time Altitude Azimuth Distance (km) Brightness Sun altitude
Exits shadow 21:59:44 - 242° (WSW) 2,265 5.3 -22.3°
Reaches altitude 10° 22:01:13 10° 259° (W) 2,045 5.3 -22.4°
Maximum altitude 22:02:17 11° 273° (W) 1,995 5.4 -22.4°
Drops below altitude 10° 22:03:20 10° 287° (WNW) 2,043 5.6 -22.5°
Sets 22:07:29 0° 326° (NW) 2,950 7.3 -22.6°
